When you browse on this site, cookies collect data to enhance your experience and personalize the content and advertising you see.
Visit our Privacy Policy to learn more. By continuing to use the site, you agree to this use of cookies and data.
  • In Hungary
  • List of Countries
  • For 7 days
  • Water Temperature
  • Satellite Maps
  • Weather Map
  • News
  • Weather Widgets
  • user-avatar
    Login

    Hourly Weather Chaville

    Today, 23 March, Saturday

    Time Temperature Precipitation Wind Pressure Humidity
    00:00 +11°C° 0 mm 1 mps 758 mmHg 64%
    01:00 +10°C° 0 mm 1 mps 758 mmHg 67%
    02:00 +10°C° 0 mm 1 mps 758 mmHg 70%
    03:00 +9°C° 0 mm 1 mps 758 mmHg 74%
    04:00 +9°C° 0 mm 1 mps 758 mmHg 76%
    05:00 +8°C° 0 mm 1 mps 758 mmHg 79%
    06:00 +8°C° 0 mm 1 mps 758 mmHg 82%
    07:00 +9°C° 0 mm 1 mps 758 mmHg 77%
    08:00 +10°C° 0 mm 1 mps 759 mmHg 73%
    09:00 +12°C° 0 mm 2 mps 759 mmHg 69%
    10:00 +13°C° 0 mm 2 mps 759 mmHg 63%
    11:00 +14°C° 0 mm 2 mps 759 mmHg 58%
    12:00 +15°C° 0 mm 1 mps 759 mmHg 53%
    13:00 +16°C° 0 mm 2 mps 758 mmHg 51%
    14:00 +16°C° 0 mm 2 mps 758 mmHg 50%
    15:00 +17°C° 0 mm 2 mps 758 mmHg 48%
    16:00 +16°C° 0 mm 2 mps 758 mmHg 54%
    17:00 +13°C° 0 mm 3 mps 758 mmHg 60%
    18:00 +12°C° 0 mm 3 mps 758 mmHg 66%
    19:00 +12°C° 0 mm 3 mps 758 mmHg 69%
    20:00 +11°C° 0 mm 3 mps 758 mmHg 73%
    21:00 +10°C° 0 mm 2 mps 758 mmHg 76%
    22:00 +10°C° 0 mm 2 mps 758 mmHg 78%
    23:00 +9°C° 0 mm 2 mps 758 mmHg 80%

    Tomorrow, 24 March, Sunday

    Time Temperature Precipitation Wind Pressure Humidity
    00:00 +9°C° 0 mm 2 mps 758 mmHg 82%
    01:00 +8°C° 0 mm 2 mps 758 mmHg 83%
    02:00 +8°C° 0 mm 2 mps 757 mmHg 85%
    03:00 +8°C° 0 mm 2 mps 757 mmHg 87%
    04:00 +7°C° 0 mm 2 mps 757 mmHg 88%
    05:00 +7°C° 0 mm 2 mps 757 mmHg 90%
    06:00 +7°C° 0 mm 2 mps 757 mmHg 91%
    07:00 +7°C° 0 mm 2 mps 757 mmHg 88%
    08:00 +8°C° 0 mm 2 mps 758 mmHg 84%
    09:00 +9°C° 0 mm 2 mps 758 mmHg 80%
    10:00 +10°C° 0 mm 2 mps 758 mmHg 75%
    11:00 +11°C° 0 mm 3 mps 758 mmHg 70%
    12:00 +12°C° 0 mm 3 mps 758 mmHg 66%
    13:00 +13°C° 0 mm 3 mps 758 mmHg 62%
    14:00 +13°C° 0 mm 3 mps 757 mmHg 59%
    15:00 +14°C° 0 mm 3 mps 757 mmHg 55%
    16:00 +13°C° 0 mm 4 mps 757 mmHg 59%
    17:00 +12°C° 0 mm 4 mps 758 mmHg 62%
    18:00 +12°C° 0 mm 4 mps 758 mmHg 66%
    19:00 +11°C° 0 mm 4 mps 758 mmHg 64%
    20:00 +10°C° 0 mm 4 mps 758 mmHg 63%
    21:00 +7°C° 0 mm 4 mps 759 mmHg 62%
    22:00 +8°C° 0 mm 3 mps 759 mmHg 61%
    23:00 +7°C° 0 mm 3 mps 759 mmHg 59%

    Day after tomorrow, 25 March, Monday

    Time Temperature Precipitation Wind Pressure Humidity
    00:00 +5°C° 0 mm 3 mps 759 mmHg 58%
    01:00 +5°C° 0 mm 3 mps 759 mmHg 61%
    02:00 +6°C° 0 mm 2 mps 759 mmHg 63%
    03:00 +5°C° 0 mm 2 mps 759 mmHg 66%
    04:00 +5°C° 0 mm 2 mps 759 mmHg 68%
    05:00 +4°C° 0 mm 3 mps 759 mmHg 71%
    06:00 +4°C° 0 mm 3 mps 759 mmHg 73%
    07:00 +5°C° 0 mm 3 mps 759 mmHg 69%
    08:00 +6°C° 0 mm 4 mps 759 mmHg 65%
    09:00 +7°C° 0 mm 5 mps 759 mmHg 60%
    10:00 +7°C° 0 mm 5 mps 760 mmHg 58%
    11:00 +7°C° 0 mm 5 mps 760 mmHg 56%
    12:00 +8°C° 0 mm 5 mps 760 mmHg 54%
    13:00 +8°C° 0 mm 5 mps 760 mmHg 52%
    14:00 +8°C° 0 mm 5 mps 760 mmHg 51%
    15:00 +8°C° 0 mm 5 mps 760 mmHg 49%
    16:00 +8°C° 0 mm 5 mps 760 mmHg 51%
    17:00 +7°C° 0 mm 5 mps 760 mmHg 52%
    18:00 +7°C° 0 mm 4 mps 760 mmHg 53%
    19:00 +6°C° 0 mm 4 mps 761 mmHg 57%
    20:00 +6°C° 0 mm 4 mps 761 mmHg 60%
    21:00 +5°C° 0 mm 4 mps 762 mmHg 64%
    22:00 +4°C° 0 mm 4 mps 762 mmHg 67%
    23:00 +4°C° 0 mm 4 mps 762 mmHg 70%

    26 March, Tuesday

    Time Temperature Precipitation Wind Pressure Humidity
    00:00 +4°C° 0 mm 4 mps 763 mmHg 73%
    01:00 +3°C° 0 mm 4 mps 763 mmHg 76%
    02:00 +3°C° 0 mm 3 mps 763 mmHg 79%
    03:00 +3°C° 0 mm 3 mps 763 mmHg 82%
    04:00 +2°C° 0 mm 3 mps 763 mmHg 82%
    05:00 +2°C° 0 mm 3 mps 763 mmHg 83%
    06:00 +2°C° 0 mm 3 mps 763 mmHg 84%
    07:00 +3°C° 0 mm 3 mps 763 mmHg 78%
    08:00 +4°C° 0 mm 3 mps 763 mmHg 72%
    09:00 +7°C° 0 mm 3 mps 764 mmHg 66%
    10:00 +8°C° 0 mm 3 mps 764 mmHg 60%
    11:00 +9°C° 0 mm 3 mps 763 mmHg 53%
    12:00 +10°C° 0 mm 3 mps 763 mmHg 47%
    13:00 +11°C° 0 mm 3 mps 763 mmHg 45%
    14:00 +11°C° 0 mm 3 mps 763 mmHg 43%
    15:00 +12°C° 0 mm 3 mps 762 mmHg 41%
    16:00 +11°C° 0 mm 3 mps 762 mmHg 44%
    17:00 +10°C° 0 mm 3 mps 762 mmHg 48%
    18:00 +10°C° 0 mm 3 mps 762 mmHg 51%
    19:00 +9°C° 0 mm 3 mps 762 mmHg 54%
    20:00 +8°C° 0 mm 3 mps 762 mmHg 57%
    21:00 +8°C° 0 mm 3 mps 762 mmHg 60%
    22:00 +7°C° 0 mm 3 mps 762 mmHg 63%
    23:00 +7°C° 0 mm 2 mps 762 mmHg 65%

    27 March, Wednesday

    Time Temperature Precipitation Wind Pressure Humidity
    00:00 +6°C° 0 mm 2 mps 762 mmHg 68%
    01:00 +6°C° 0 mm 2 mps 762 mmHg 70%
    02:00 +5°C° 0 mm 2 mps 762 mmHg 73%
    03:00 +6°C° 0 mm 1 mps 762 mmHg 75%
    04:00 +5°C° 0 mm 1 mps 762 mmHg 75%
    05:00 +4°C° 0 mm 2 mps 762 mmHg 76%
    06:00 +4°C° 0 mm 2 mps 762 mmHg 77%
    07:00 +5°C° 0 mm 2 mps 762 mmHg 70%
    08:00 +7°C° 0 mm 2 mps 762 mmHg 63%
    09:00 +8°C° 0 mm 2 mps 763 mmHg 56%
    10:00 +10°C° 0 mm 2 mps 763 mmHg 51%
    11:00 +12°C° 0 mm 2 mps 762 mmHg 47%
    12:00 +13°C° 0 mm 3 mps 762 mmHg 43%
    13:00 +13°C° 0 mm 3 mps 762 mmHg 43%
    14:00 +14°C° 0 mm 3 mps 762 mmHg 43%
    15:00 +14°C° 0 mm 3 mps 762 mmHg 43%
    16:00 +14°C° 0 mm 3 mps 761 mmHg 48%
    17:00 +13°C° 0 mm 3 mps 761 mmHg 54%
    18:00 +12°C° 0 mm 3 mps 761 mmHg 59%
    19:00 +12°C° 0 mm 3 mps 761 mmHg 61%
    20:00 +11°C° 0 mm 3 mps 762 mmHg 62%
    21:00 +11°C° 0 mm 3 mps 762 mmHg 64%
    22:00 +10°C° 0 mm 3 mps 762 mmHg 69%
    23:00 +9°C° 0 mm 3 mps 762 mmHg 73%

    28 March, Thursday

    Time Temperature Precipitation Wind Pressure Humidity
    00:00 +8°C° 0 mm 2 mps 762 mmHg 78%
    01:00 +8°C° 0 mm 2 mps 761 mmHg 80%
    02:00 +8°C° 0 mm 2 mps 761 mmHg 82%
    03:00 +7°C° 0 mm 2 mps 761 mmHg 84%
    04:00 +7°C° 0 mm 2 mps 761 mmHg 85%
    05:00 +6°C° 0 mm 2 mps 761 mmHg 86%
    06:00 +6°C° 0 mm 2 mps 761 mmHg 87%
    07:00 +7°C° 0 mm 2 mps 761 mmHg 81%
    08:00 +9°C° 0 mm 2 mps 762 mmHg 76%
    09:00 +10°C° 0 mm 3 mps 762 mmHg 71%
    10:00 +11°C° 0 mm 3 mps 761 mmHg 67%
    11:00 +13°C° 0 mm 3 mps 761 mmHg 62%
    12:00 +14°C° 0 mm 3 mps 761 mmHg 58%
    13:00 +14°C° 0 mm 3 mps 761 mmHg 57%
    14:00 +16°C° 0 mm 3 mps 761 mmHg 57%
    15:00 +15°C° 0 mm 4 mps 760 mmHg 56%
    16:00 +14°C° 0 mm 3 mps 760 mmHg 60%
    17:00 +13°C° 0 mm 3 mps 760 mmHg 63%
    18:00 +12°C° 0 mm 3 mps 760 mmHg 67%
    19:00 +11°C° 0 mm 3 mps 760 mmHg 70%
    20:00 +10°C° 0 mm 3 mps 761 mmHg 74%
    21:00 +10°C° 0 mm 3 mps 761 mmHg 77%
    22:00 +9°C° 0 mm 3 mps 761 mmHg 79%
    23:00 +8°C° 0 mm 2 mps 760 mmHg 81%
    Show more